#timestamp,LO_Frequency,Hit,StdDev 
1530396015.5,286046999.7,N
1530396035.4,286046998.6,N
1530396055.2,286046996.9,N
1530396075.1,286046999.0,N
1530396076.0,286046999.0,N
1530396095.8,286046998.8,N
1530396115.6,286046999.6,N
1530396135.5,286046999.1,N
1530396155.3,286046998.6,N
1530396175.1,286046999.2,N
1530396195.9,286046999.4,N
1530396215.7,286046998.3,N
1530396235.6,286046999.6,N
1530396255.4,286046998.3,N
1530396275.2,286046998.8,N
1530396295.1,286046999.5,N
1530396296.0,286046999.5,N
1530396315.8,286046996.9,N
1530396335.6,286046996.6,Y
1530396355.5,286046999.3,P
1530396375.3,286046998.7,P
1530396395.2,286046997.0,P
1530396415.9,286046996.9,Y
1530396435.7,286046998.7,P
1530396455.6,286046998.9,P
1530396475.4,286047000.9,P
1530396495.3,286046998.9,N
1530396515.1,286046999.1,N
1530396535.8,286047001.2,N
1530396555.7,286046995.3,Y
1530396575.5,286046995.6,P
1530396595.4,286046997.5,N
1530396615.2,286046995.1,P
1530396635.0,286046994.9,N
1530396635.9,286046994.9,N
1530396655.8,286046999.2,N
1530396675.6,286046999.2,N
1530396695.4,286046998.8,N
1530396715.3,286046998.8,N
1530396735.1,286046998.4,N
1530396755.9,286046998.7,N
1530396775.7,286046996.5,N
1530396795.5,286046999.5,N
1530396815.4,286046999.6,N
1530396835.2,286046996.8,N
1530396855.0,286046998.6,N
1530396855.9,286046998.6,N
1530396875.8,286046998.5,N
1530396895.6,286046997.3,N
1530396915.5,286046998.3,N
1530396935.3,286046998.4,N
1530396955.1,286046999.0,N
1530396975.9,286046999.4,N
1530396995.7,286046998.3,N
1530397015.6,286046998.8,N
1530397035.4,286046999.5,N
1530397055.2,286046997.3,N
1530397075.1,286046997.0,N
1530397076.0,286046997.0,N
1530397095.8,286046994.9,Y
1530397115.6,286047001.1,P
1530397135.5,286046999.0,N
1530397155.3,286046996.6,N
1530397175.2,286046999.1,N
1530397195.9,286046998.3,N
1530397215.7,286047000.4,N
1530397235.6,286046996.8,N
1530397255.4,286046996.9,N
1530397275.2,286046996.9,N
1530397295.1,286046997.7,N
1530397296.0,286046997.7,N
1530397315.8,286046997.3,N
1530397335.7,286046998.8,N
1530397355.5,286046999.4,N
1530397375.3,286046997.1,N
1530397395.2,286046997.5,N
1530397415.0,286046997.8,N
1530397415.9,286046997.8,N
1530397435.7,286046999.0,N
1530397455.6,286046997.3,N
1530397475.4,286046997.0,N
1530397495.3,286046998.6,N
1530397515.1,286046998.4,N
1530397516.0,286046998.4,N
1530397535.8,286046999.5,N
1530397555.7,286046997.5,N
1530397575.5,286046996.8,N
1530397595.3,286046999.6,N
1530397615.2,286046997.8,N
1530397635.0,286046999.4,N
1530397635.9,286046999.4,N
1530397655.8,286046998.2,N
1530397675.6,286047000.9,N
1530397695.4,286047000.3,N
1530397715.3,286046998.9,N
1530397735.1,286046997.0,N
1530397755.8,286046997.8,N
1530397775.7,286046997.3,N
1530397795.5,286046997.6,N
1530397815.4,286046997.9,N
1530397835.2,286046997.4,N
1530397855.0,286046997.4,N
1530397855.9,286046997.4,N
1530397875.8,286046995.4,Y
1530397895.6,286046996.8,P
1530397915.4,286046999.3,N
1530397935.3,286046998.6,N
1530397955.1,286046998.8,N
1530397975.9,286046998.6,N
1530397995.7,286046997.0,Y
1530398015.5,286046999.9,P
1530398035.4,286047000.1,N
1530398055.2,286047000.0,N
1530398075.1,286047000.8,N
1530398076.0,286047000.8,N
1530398095.8,286046998.1,N
1530398115.6,286047001.0,N
1530398135.5,286047000.0,N
1530398155.3,286047000.5,N
1530398175.1,286047000.3,N
1530398195.9,286046999.9,N
1530398215.7,286047002.7,Y
1530398235.6,286047002.7,P
1530398255.4,286047002.3,N
1530398275.2,286047000.1,N
1530398295.1,286047002.8,N
1530398296.0,286047002.8,N
1530398315.8,286047001.7,N
1530398335.7,286047000.3,N
1530398355.5,286047002.4,N
1530398375.3,286047002.3,N
1530398395.2,286047002.7,N
1530398415.0,286047000.1,N
1530398415.9,286047000.1,N
1530398435.8,286046999.8,N
1530398455.6,286047004.4,Y
1530398475.4,286047000.3,P
1530398495.3,286046998.5,N
1530398515.1,286046998.2,N
1530398535.8,286046998.3,N
1530398555.7,286046998.6,N
1530398575.5,286047000.0,N
1530398595.4,286046999.9,N
1530398615.2,286046999.8,N
1530398635.0,286047000.9,N
1530398635.9,286047000.9,N
1530398655.8,286047000.3,N
1530398675.6,286047000.9,N
1530398695.4,286046998.1,N
1530398715.3,286046998.2,N
1530398735.1,286046999.8,N
1530398755.9,286047001.2,N
1530398775.7,286046998.8,N
1530398795.5,286047000.4,N
1530398815.4,286047001.0,N
1530398835.2,286047002.1,N
1530398855.1,286046998.1,N
1530398856.0,286046998.1,N
1530398875.8,286047002.7,N
1530398895.6,286046999.7,N
1530398915.5,286047002.3,N
1530398935.3,286047002.6,N
1530398955.1,286047000.8,N
1530398975.9,286047002.6,N
1530398995.7,286047002.6,N
1530399015.6,286047000.1,N
1530399035.4,286047002.6,N
1530399055.2,286047002.1,N
1530399075.1,286047000.4,N
1530399076.0,286047000.4,N
1530399095.8,286047002.5,N
1530399115.6,286046999.7,N
1530399135.5,286047001.4,N
1530399155.3,286047001.9,N
1530399175.2,286047000.2,N
1530399195.9,286047001.9,N
1530399215.7,286047002.5,N
1530399235.6,286047002.1,N
1530399255.4,286047003.7,N
1530399275.2,286047005.4,Y
1530399295.1,286047003.3,P
1530399296.0,286047003.3,N
1530399315.8,286047002.7,N
1530399335.7,286047002.3,N
1530399355.5,286047000.2,N
1530399375.3,286047002.2,N
1530399395.2,286047002.7,N
1530399415.0,286047001.1,N
1530399415.9,286047001.1,N
1530399435.7,286046998.3,N
1530399455.6,286047000.1,N
1530399475.4,286046998.6,N
1530399495.3,286046999.2,N
1530399515.1,286047000.8,N
1530399516.0,286047000.8,N
1530399535.8,286047000.2,N
1530399555.7,286047000.6,N
1530399575.5,286047000.8,N
1530399595.4,286047000.0,N
